Погода в Ивановке

Украина / Кировоградская область     48°52′12″N   32°53′41″E
темп.,
°C
ветер,
м/с
пор.,
м/с
влажн.,
%
обл.,
%
осадки,
мм/ч
давл.,
гПа
погр.,
м
14 мая, пт
пт1400:00+13вюв3666100 0.0 1011105
03:00+11вюв3578100 0.0 101091
06:00+11юв348466 0.0 100973
09:00+17ююв45725 0.0 1008543
12:00+21ю6750100 0.0 10081194
15:00+22ююз7849100 0.0 10081649
18:00+21ююз68555 0.0 10081575
21:00+15ююз4127612 0.0 1009250
15 мая, сб
сб1500:00+12ююз4118711 0.0 1009233
03:00+11ююз410894 0.0 1010198
06:00+11ююз38926 0.0 1011183
09:00+18юз57681 0.0 1011619
12:00+21юз565130 0.0 10121596
15:00+23юз574497 0.0 10112413
18:00+19зюз3359100 0.0 101157
21:00+17з226278 0.0 101219
16 мая, вс
вс1600:00+14ссз12751 0.0 101211
03:00+13з01821 0.0 101310
06:00+13ссз11809 0.0 101311
09:00+19св2362100 0.0 1013431
12:00+23всв3447100 0.0 10121524
15:00+24в444249 0.0 10112064
18:00+23в345028 0.0 10091494
21:00+17ссв3470100 0.0 100952
17 мая, пн
пн1700:00+16св497499 0.1 1007156
03:00+16с2293100 1.6 100534
06:00+15юз4799100 9.0 1006315
09:00+17с3483100 11.6 1005286
12:00+21юз226795 0.3 10061044
15:00+21юз457060 2.1 10061022
18:00+21з466825 0.3 1006989
21:00+16ссз358894 0.3 100873
18 мая, вт
вт1800:00+14с22935 0.3 100938
03:00+13зсз23975 1.1 101048
06:00+13сз249843 1.5 1011109
09:00+16сз338272 1.5 1012602
12:00+20з236154 0.1 10121326
15:00+23зюз34470 0.1 10111679
18:00+22ююз2352100 0.0 10111472
21:00+19в2369100 0.3 100935